Location: Chuathbaluk
(61.5726°N, 159.2454°W)
Time: 15:35:26
(UTC+00:00)

ITAMSAT 1 - Pass Details

Date: 22 January 2021
Orbit: 784 x 796 km, 98.9° (Epoch: 05 March)

Event Time Altitude Azimuth Distance (km) Brightness Sun altitude
Rises 17:39:01 0° 19° (NNE) 3,291 10.9 -11.3°
Reaches altitude 10° 17:41:21 10° 21° (NNE) 2,359 10.1 -11.0°
Maximum altitude 17:46:34 75° 107° (ESE) 820 7.9 -10.5°
Drops below altitude 10° 17:51:45 10° 194° (SSW) 2,347 10.2 -9.9°
Sets 17:54:04 0° 196° (SSW) 3,273 11.0 -9.6°
